Regional Weather Roundup
Issued by NWS

Home | Current Version | Previous Version | Text Only | Print | Product List | Glossary On
Versions: 1 2 3 4 5 6 7 8 9 10 11 12 13 14 15 16 17 18 19 20 21 22 23 24 25 26 27 28 29 30 31 32 33 34 35 36 37 38 39 40 41 42 43 44 45 46 47 48 49 50
000
ASUS44 KFWD 272310
RWRTX
NORTH TEXAS HOURLY WEATHER ROUNDUP
NATIONAL WEATHER SERVICE FORT WORTH TX
500 PM CST FRI FEB 27 2015

NOTE: "FAIR" INDICATES FEW OR NO CLOUDS BELOW 12,000 FEET WITH NO
SIGNIFICANT WEATHER AND/OR OBSTRUCTIONS TO VISIBILITY.

TXZ118-119-280000-
DALLAS/FORT WORTH METROPLEX

CITY           SKY/WX    TMP DP  RH WIND       PRES   REMARKS
DFW AIRPORT    LGT SNOW  26  22  84 NE14      30.42S WCI  14
DALLAS LOVE    LGT SNOW  27  23  85 NE8       30.43S FOG     WCI  19
FTW MEACHAM    LGT SNOW  26  21  81 N10       30.41F WCI  16
DAL-EXECUTIVE  LGT SNOW  27  23  85 NE9       30.40F FOG     WCI  18
FTW-ALLIANCE   SNOW      24  21  88 NE12      30.41F VSB 1/2 WCI  13
FTW-SPINKS     LGT SNOW  27  25  93 N7        30.42F WCI  19
ARLINGTON      MIX PCPN  28  22  78 NE10      30.42S WCI  19
GRAND PRAIRIE  PTSUNNY   27  27 100 N9        30.43F WCI  17
ADDISON        LGT SNOW  27  23  86 NE9       30.43F VSB 1   WCI  17
MESQUITE       CLOUDY    28  23  80 N9        30.44R WCI  20
LANCASTER      LGT RAIN  28  22  79 NE9       30.43F WCI  19
$$

TXZ091>094-102>105-117-120-121-131>134-280000-
NORTH CENTRAL TEXAS

CITY           SKY/WX    TMP DP  RH WIND       PRES   REMARKS
SHRMAN/DENISON LGT SNOW  25  24  96 N8        30.45F VSB 1   WCI  16
GAINESVILLE    LGT SNOW  22  19  88 N9        30.46F WCI  11
BOWIE          LGT SNOW  21  19  91 NE5       30.41F VSB 1   WCI  14
BRIDGEPORT     LGT SNOW  22  22  98 NE7       30.44F WCI  14
DECATUR        LGT SNOW  22  20  93 NE8       30.40F WCI  12
DENTON         SNOW      23  21  92 N12       30.43F VSB 1/2 WCI  12
MCKINNEY       LGT SNOW  26  22  84 NE12      30.43S FOG     WCI  16
GREENVILLE     CLOUDY    28  21  74 NE7       30.44R WCI  21
TERRELL        CLOUDY    30  21  69 NE12      30.43S WCI  20
WAXAHACHIE     CLOUDY    27  25  92 NE6       30.41F FOG     WCI  21
CLEBURNE       LGT SNOW  27  25  93 NE10      30.40F WCI  17
GRANBURY       DRIZZLE   26  24  89 N7        30.42S WCI  19
$$

TXZ083>090-098>101-113>116-127>130-139>142-154-155-280000-
WESTERN NORTH TEXAS

CITY           SKY/WX    TMP DP  RH WIND       PRES   REMARKS
WICHITA FALLS  MIX PCPN  20  14  77 NE13      30.43F WCI   7
WF-KICKAPOO    LGT SNOW  22  18  85 NE8       30.45S WCI  13
VERNON         CLOUDY    20  13  72 NE9       30.44S WCI  10
ABILENE        CLOUDY    20  17  88 NE10      30.33S FOG     WCI   9
ABILENE-DYESS  FRZ RAIN  20  17  88 NE7       30.32S WCI  11
BRECKENRIDGE   MIX PCPN  24  21  90 NE9       30.38S WCI  14
GRAHAM         LGT SNOW  22  20  93 N5        30.39S WCI  15
MINERAL WELLS  MIX PCPN  23  19  85 NE8       30.39F FOG     WCI  14
STEPHENVILLE   CLOUDY    23  21  91 NE9       30.39R WCI  13
COMANCHE       CLOUDY    24  24 100 NE10      30.36R FOG     WCI  13
BROWNWOOD      CLOUDY    25  21  86 NE10      30.35R FOG     WCI  15
COLEMAN        CLOUDY    24  23  96 NE12      30.32R FOG     WCI  13
$$

TXZ143>147-156>162-174-175-280000-
CENTRAL TEXAS

CITY           SKY/WX    TMP DP  RH WIND       PRES   REMARKS
WACO           FRZ RAIN  29  26  89 N13       30.38S FOG     WCI  19
WACO-MCGREGOR    N/A     30  21  69 N15       30.38S WCI  19
HILLSBORO      MIX PCPN  29  24  82 N12       30.39S WCI  19
CORSICANA      CLOUDY    33  19  56 NE8       30.40S WCI  26
MEXIA          CLOUDY    32  20  62 MISG      30.37R
HEARNE         CLOUDY    37  25  62 NE12      30.35S WCI  29
CAMERON        CLOUDY    37  25  63 NE9       30.34S WCI  30
TEMPLE         CLOUDY    30  25  80 N12       30.34S WCI  21
KILLEEN        FRZ RAIN  28  27  93 N13       30.32S FOG     WCI  18
KILLEEN-SKYLRK CLOUDY    30  23  74 N10       30.32S WCI  21
FORT HOOD      FRZ RAIN  29  28  96 NE13      30.33R VSB 1   WCI  18
GATESVILLE     CLOUDY    30  28  93 NE5       30.37S FOG     WCI  25
HAMILTON       CLOUDY    26  26 100 NE10      30.34S FOG     WCI  16
LAMPASAS       CLOUDY    28  26  94 NE7       30.31S FOG     WCI  21
$$

TXZ095>097-106>112-122>126-135>138-148>153-164>167-280000-
EAST TEXAS

CITY           SKY/WX    TMP DP  RH WIND       PRES   REMARKS
PARIS          PTSUNNY   27  19  74 NE8       30.45F WCI  18
SULPHUR SPRNGS CLOUDY    28  21  75 NE10      30.46R WCI  19
MOUNT PLEASANT CLOUDY    30  18  60 NE12      30.46S WCI  20
GILMER         CLOUDY    29  17  60 MISG      30.42F
MINEOLA        CLOUDY    32  14  47 NE7       30.43R WCI  26
TYLER          CLOUDY    31  17  56 E16       30.39F WCI  20
LONGVIEW       CLOUDY    32  18  56 NE12      30.43F WCI  23
MARSHALL       CLOUDY    33  21  61 NE8       30.47S WCI  26
ATHENS         CLOUDY    32  19  59 NE8       30.39S WCI  25
PALESTINE      CLOUDY    34  22  62 NE9       30.39S WCI  26
JACKSONVILLE   CLOUDY    32  22  66 NE9       30.37F WCI  25
HENDERSON      CLOUDY    32  21  63 NE9G16    30.42F WCI  24
NACOGDOCHES    PTSUNNY   37  21  52 NE7       30.40R WCI  32
LUFKIN         CLOUDY    43  25  49 NE9       30.37S WCI  38
$$

SUPPLEMENTAL OBSERVATIONS (CENTRAL)

CITY           SKY/WX    TMP DP  RH WIND       PRES   REMARKS
$$

SUPPLEMENTAL OBSERVATIONS (WEST)

CITY           SKY/WX    TMP DP  RH WIND       PRES   REMARKS
$$

SUPPLEMENTAL OBSERVATIONS (EAST)

CITY           SKY/WX    TMP DP  RH WIND       PRES   REMARKS
$$

SUPPLEMENTAL OBSERVATIONS ARE A COLLECTION OF AUTOMATED INSTRUMENTS
THAT ARE MAINTAINED BY A VARIETY OF FEDERAL AND STATE AGENCIES.
CERTAIN ELEMENTS...SUCH AS HUMIDITY VALUES AND SUSTAINED WIND
SPEEDS...MAY BE APPROXIMATED.




USA.gov is the U.S. government's official web portal to all federal, state and local government web resources and services.